LACMA ENOCH

Last updated on Wed Dec 22 2021 00:03:22 GMT+0000 (Coordinated Universal Time)

1 43777U 18099V 21354.75157085 .06806039 91028-1 25062-1 0 9997 2 43777 97.7083 80.5119 0014187 326.9067 33.1318 15.94430991167268

Satellite not in orbit